TimeEDT,TemperatureF,Dew PointF,Humidity,Sea Level PressureIn,VisibilityMPH,Wind Direction,Wind SpeedMPH,Gust SpeedMPH,PrecipitationIn,Events,Conditions,WindDirDegrees,DateUTC
12:52 AM,69.1,62.1,78,29.96,10.0,ENE,11.5,-,N/A,,Mostly Cloudy,60,2013-08-09 04:52:00
1:52 AM,68.0,59.0,73,29.96,10.0,NE,6.9,-,N/A,,Overcast,50,2013-08-09 05:52:00
2:52 AM,66.9,55.9,68,29.96,10.0,NNE,3.5,-,N/A,,Overcast,30,2013-08-09 06:52:00
3:52 AM,66.0,55.0,68,29.94,10.0,ENE,4.6,-,N/A,,Overcast,60,2013-08-09 07:52:00
4:52 AM,64.9,57.0,75,29.94,10.0,NE,4.6,-,N/A,,Mostly Cloudy,40,2013-08-09 08:52:00
5:52 AM,64.9,55.9,73,29.96,10.0,North,3.5,-,N/A,,Overcast,10,2013-08-09 09:52:00
6:52 AM,64.0,55.0,73,29.96,10.0,Calm,Calm,-,N/A,,Scattered Clouds,0,2013-08-09 10:52:00
7:52 AM,64.0,55.9,75,29.97,10.0,North,4.6,-,N/A,,Mostly Cloudy,10,2013-08-09 11:52:00
8:52 AM,64.9,55.9,73,29.98,10.0,Calm,Calm,-,N/A,,Clear,0,2013-08-09 12:52:00
9:52 AM,70.0,53.1,55,29.97,10.0,North,6.9,-,N/A,,Clear,10,2013-08-09 13:52:00
10:52 AM,71.1,53.1,53,29.99,10.0,NNE,3.5,-,N/A,,Clear,30,2013-08-09 14:52:00
11:52 AM,73.9,54.0,50,29.99,10.0,North,3.5,-,N/A,,Clear,10,2013-08-09 15:52:00
12:52 PM,75.9,52.0,43,29.99,10.0,NE,4.6,-,N/A,,Clear,40,2013-08-09 16:52:00
1:52 PM,75.9,52.0,43,29.99,10.0,Variable,4.6,-,N/A,,Clear,0,2013-08-09 17:52:00
2:52 PM,78.1,53.1,42,29.98,10.0,Calm,Calm,-,N/A,,Clear,0,2013-08-09 18:52:00
3:52 PM,79.0,55.0,44,29.98,10.0,WSW,8.1,-,N/A,,Clear,240,2013-08-09 19:52:00
4:52 PM,79.0,55.0,44,29.97,10.0,West,6.9,-,N/A,,Clear,270,2013-08-09 20:52:00
5:52 PM,79.0,57.0,47,29.97,10.0,SW,8.1,-,N/A,,Clear,230,2013-08-09 21:52:00
6:52 PM,77.0,59.0,54,29.96,10.0,WSW,6.9,-,N/A,,Clear,240,2013-08-09 22:52:00
7:52 PM,78.1,59.0,52,29.97,10.0,West,8.1,-,N/A,,Clear,280,2013-08-09 23:52:00
8:52 PM,73.9,61.0,64,29.99,10.0,West,4.6,-,N/A,,Clear,270,2013-08-10 00:52:00
9:52 PM,72.0,61.0,68,30.00,10.0,WNW,4.6,-,N/A,,Clear,290,2013-08-10 01:52:00
10:52 PM,72.0,60.1,66,30.01,10.0,WNW,4.6,-,N/A,,Clear,290,2013-08-10 02:52:00
11:52 PM,68.0,62.1,81,30.02,10.0,West,3.5,-,N/A,,Clear,260,2013-08-10 03:52:00